#timestamp,LO_Frequency,Hit,StdDev 
1570939215.5,286047002.6,N
1570939235.3,286047001.0,N
1570939255.2,286046999.9,N
1570939275.9,286047000.1,N
1570939295.7,286047001.4,N
1570939315.6,286047003.8,N
1570939335.4,286047001.6,N
1570939355.2,286047004.0,N
1570939375.1,286047004.7,N
1570939376.0,286047004.7,N
1570939395.8,286047005.0,N
1570939415.7,286047006.4,N
1570939435.5,286047007.5,N
1570939455.3,286047007.1,N
1570939475.2,286047003.4,N
1570939495.0,286047002.2,N
1570939495.9,286047002.2,N
1570939515.7,286047002.4,N
1570939535.6,286046999.9,N
1570939555.4,286046999.8,N
1570939575.3,286047002.4,N
1570939595.1,286047000.8,N
1570939596.0,286047000.8,N
1570939615.8,286047000.2,N
1570939635.7,286047000.1,N
1570939655.5,286047000.6,N
1570939675.4,286047002.3,N
1570939695.2,286047000.8,N
1570939715.0,286046999.6,N
1570939715.9,286046999.6,N
1570939735.8,286046997.8,N
1570939755.6,286046999.6,N
1570939775.4,286047001.1,N
1570939795.3,286047001.2,N
1570939815.1,286046999.6,N
1570939835.9,286046997.8,N
1570939855.7,286046999.1,N
1570939875.5,286046997.8,N
1570939895.4,286046995.6,N
1570939915.2,286046997.3,N
1570939935.0,286046997.3,N
1570939935.9,286046997.3,N
1570939955.8,286046996.1,N
1570939975.6,286046995.0,N
1570939995.5,286046997.5,N
1570940015.3,286046997.7,N
1570940035.1,286046997.7,N
1570940055.9,286046999.4,N
1570940075.7,286046998.1,N
1570940095.6,286047001.1,N
1570940115.4,286047002.3,N
1570940135.2,286047002.4,N
1570940155.1,286046999.7,N
1570940156.0,286046999.7,N
1570940175.8,286047000.4,N
1570940195.6,286046998.6,N
1570940215.5,286046998.3,N
1570940235.3,286046999.0,N
1570940255.2,286046999.1,N
1570940275.9,286046999.4,N
1570940295.7,286046999.4,N
1570940315.6,286046998.2,N
1570940335.4,286046998.7,N
1570940355.2,286046999.8,N
1570940375.1,286047002.6,N
1570940376.0,286047002.6,N
1570940395.8,286047002.5,N
1570940415.7,286047000.4,N
1570940435.5,286047002.7,N
1570940455.3,286047000.7,N
1570940475.2,286047000.0,N
1570940495.0,286046999.8,N
1570940495.9,286046999.8,N
1570940515.8,286047002.8,N
1570940535.6,286047002.8,N
1570940555.4,286047003.9,N
1570940575.3,286047004.2,N
1570940595.1,286047002.1,N
1570940615.8,286047005.4,Y
1570940635.7,286047004.5,P
1570940655.5,286047004.6,N
1570940675.4,286047007.6,P
1570940695.2,286047006.6,N
1570940715.0,286047006.7,N
1570940715.9,286047006.7,N
1570940735.8,286047005.1,N
1570940755.6,286047005.5,N
1570940775.4,286047005.0,N
1570940795.3,286047004.8,N
1570940815.1,286047006.8,Y
1570940835.9,286047002.0,P
1570940855.7,286047003.9,N
1570940875.5,286047001.9,N
1570940895.4,286047000.0,N
1570940915.2,286047001.4,N
1570940935.0,286047003.4,N
1570940935.9,286047003.4,N
1570940955.8,286047001.9,N
1570940975.6,286047001.8,N
1570940995.5,286046999.9,N
1570941015.3,286047002.3,N
1570941035.1,286047001.5,N
1570941055.9,286047000.4,N
1570941075.7,286047002.3,N
1570941095.6,286046998.3,N
1570941115.4,286046998.1,N
1570941135.2,286046998.3,N
1570941155.1,286047002.4,N
1570941156.0,286047002.4,N
1570941175.8,286047004.2,N
1570941195.6,286047001.9,N
1570941215.5,286047002.0,N
1570941235.3,286047002.2,N
1570941255.2,286047000.6,N
1570941275.9,286047000.1,N
1570941295.7,286047002.8,N
1570941315.6,286047001.2,N
1570941335.4,286046999.9,N
1570941355.2,286047001.4,N
1570941375.1,286047001.7,N
1570941376.0,286047001.7,N
1570941395.8,286047002.5,N
1570941415.7,286047001.9,N
1570941435.5,286047001.4,N
1570941455.3,286047001.4,N
1570941475.2,286047001.6,N
1570941495.0,286046999.7,N
1570941495.9,286046999.7,N
1570941515.7,286047000.3,N
1570941535.6,286047001.7,N
1570941555.4,286047001.7,N
1570941575.3,286047004.0,N
1570941595.1,286047001.6,N
1570941596.0,286047001.6,N
1570941615.8,286047001.7,N
1570941635.7,286047001.5,N
1570941655.5,286047001.3,N
1570941675.3,286047003.1,N
1570941695.2,286047005.3,Y
1570941715.0,286047005.2,P
1570941715.9,286047005.2,N
1570941735.8,286047005.5,P
1570941755.6,286047003.5,N
1570941775.4,286047006.0,Y
1570941795.3,286046998.7,P
1570941815.1,286047000.7,N
1570941835.9,286046999.8,N
1570941855.7,286047000.3,N
1570941875.5,286047000.7,N
1570941895.4,286046996.5,N
1570941915.2,286046996.7,N
1570941935.1,286046996.5,N
1570941936.0,286046996.5,N
1570941955.8,286046996.8,N
1570941975.6,286046997.1,N
1570941995.5,286046996.7,N
1570942015.3,286046999.6,N
1570942035.1,286046998.8,N
1570942055.9,286047000.3,N
1570942075.7,286047000.5,N
1570942095.6,286046998.5,N
1570942115.4,286046996.8,N
1570942135.2,286046995.6,N
1570942155.1,286046997.8,N
1570942156.0,286046997.8,N
1570942175.8,286046996.9,N
1570942195.6,286046997.0,N
1570942215.5,286046995.4,N
1570942235.3,286046995.5,N
1570942255.2,286046994.9,N
1570942275.9,286046995.2,N
1570942295.7,286047011.9,Y
1570942315.6,286046993.3,P
1570942335.4,286046993.7,N
1570942355.3,286046997.3,N
1570942375.1,286046997.9,N
1570942376.0,286046997.9,N
1570942395.8,286046999.1,N
1570942415.7,286046997.3,N
1570942435.5,286046997.0,N
1570942455.3,286046999.0,N
1570942475.2,286046997.3,N
1570942525.0,286046997.1,E
1570942535.9,286046996.5,N
1570942555.7,286047000.8,P
1570942575.5,286047000.8,N
1570942595.4,286046998.5,N
1570942615.2,286047000.2,N
1570942635.1,286047000.1,N
1570942636.0,286047000.1,N
1570942655.8,286047002.2,N
1570942675.6,286047000.4,N
1570942695.5,286047000.3,N
1570942715.3,286047002.8,N
1570942735.1,286046998.4,N
1570942755.9,286047001.1,N
1570942775.7,286046996.6,N
1570942795.6,286046999.1,N
